Regional Weather Roundup
Issued by NWS Upton, NY

Current Version | Previous Version | Text Only | Print | Product List | Glossary On
Versions: 1 2 3 4 5 6 7 8 9 10 11 12 13 14 15 16 17 18 19 20 21 22 23 24 25 26 27 28 29 30 31 32 33 34 35 36 37 38 39 40 41 42 43 44 45 46 47 48 49 50
000 ASUS41 KOKX 161505 RWROKX REGIONAL WEATHER ROUNDUP NATIONAL WEATHER SERVICE NEW YORK NY 1100 AM EDT TUE SEP 16 2014 NOTE: "FAIR" INDICATES FEW OR NO CLOUDS BELOW 12,000 FEET WITH NO SIGNIFICANT WEATHER AND/OR OBSTRUCTIONS TO VISIBILITY. NYZ071-072-176-178-NJZ106-104-161600- NEW YORK CITY METRO AREA CITY SKY/WX TMP DP RH WIND PRES REMARKS CENTRAL PARK RAIN 59 56 89 CALM 30.05S FOG LAGUARDIA APRT CLOUDY 59 56 89 NE8 30.02S KENNEDY INTL LGT RAIN 60 57 89 N8 30.03R NEWARK/LIBERTY LGT RAIN 59 57 93 NE8 30.02F BRNX BOT. GARD N/A 59 57 94 CALM 30.04R TETERBORO LGT RAIN 60 56 86 CALM 30.00F FOG $$ NYZ177-179-078>081-161600- LONG ISLAND NEW YORK CITY SKY/WX TMP DP RH WIND PRES REMARKS FARMINGDALE LGT RAIN 61 58 90 NW6 30.03S FOG ISLIP LGT RAIN 62 59 90 NW7 30.00F SHIRLEY LGT RAIN 62 59 90 N5 30.01S WESTHAMPTON LGT RAIN 66 53 63 CALM 30.02S MONTAUK POINT N/A 67 53 61 CALM 30.02F $$ NYZ052-065-067-161600- HUDSON VALLEY CITY SKY/WX TMP DP RH WIND PRES REMARKS WHITE PLAINS LGT RAIN 58 56 93 CALM 30.01F FOG NEWBURGH CLOUDY 57 57 100 W6 30.04S MONTGOMERY CLOUDY 59 55 87 CALM 30.02F POUGHKEEPSIE CLOUDY 59 55 87 NW3 30.01F ALBANY CLOUDY 58 53 84 S6 30.03S $$ NJZ001-105-106-008-010-013-015-019>022-104-161600- NEW JERSEY CITY SKY/WX TMP DP RH WIND PRES REMARKS NEWARK/LIBERTY LGT RAIN 59 57 93 NE8 30.02F TETERBORO LGT RAIN 60 56 86 CALM 30.00F FOG CALDWELL PTSUNNY 59 55 87 E6 30.02F MORRISTOWN NOT AVBL SOMERVILLE CLOUDY 62 57 83 CALM 30.00S LINDEN DRIZZLE 62 61 94 N5 30.03F SUSSEX PTSUNNY 65 56 72 CALM 30.02F ANDOVER N/A 62 56 80 VRB6 30.03S TRENTON CLOUDY 63 57 81 N8 30.01S MILLVILLE PTSUNNY 70 60 70 NW10 30.00S ATLANTIC CITY PTSUNNY 69 65 86 NW13 29.99S WRIGHTSTOWN CLOUDY 63 61 94 N7 29.98F TOMS RIVER CLOUDY 64 61 88 NW8 30.00S BELMAR CLOUDY 63 55 77 NW9 30.00S $$ PAZ047>061-062-071-161600- EASTERN PENNSYLVANIA CITY SKY/WX TMP DP RH WIND PRES REMARKS PHILADELPHIA MOSUNNY 69 58 67 NW14 30.01S ALLENTOWN PTSUNNY 66 55 68 NE5 30.02S SCRANTON PTSUNNY 60 51 72 VRB3 30.04F $$ CTZ002-004>006-009-010-012-RIZ004-006-007-MAZ004-011-015-161600- SOUTHERN NEW ENGLAND IN CT CITY SKY/WX TMP DP RH WIND PRES REMARKS BRADLEY INTL LGT RAIN 56 53 90 SE6 30.01F HARTFORD LGT RAIN 55 52 89 SE10 30.02F DANBURY CLOUDY 57 55 93 SE3 30.03F WTRBRY/OXFORD NOT AVBL BRIDGEPORT CLOUDY 60 57 89 NW6 30.02F MERIDEN CLOUDY 57 53 86 CALM 30.03F NEW HAVEN CLOUDY 60 55 83 N9 30.02F CHESTER LGT RAIN 57 55 94 N5 30.03S GROTON CLOUDY 65 54 67 CALM 30.00F WILLIMANTIC RAIN 56 53 90 CALM 30.04S FOG IN RI CITY SKY/WX TMP DP RH WIND PRES REMARKS PROVIDENCE PTSUNNY 66 52 60 S7 30.02F BLOCK ISLAND MOSUNNY 66 48 52 S5 30.02S WESTERLY CLOUDY 66 51 58 S3 30.02F IN MA CITY SKY/WX TMP DP RH WIND PRES REMARKS BOSTON CLOUDY 62 50 64 CALM 30.01F WORCESTER LGT RAIN 55 51 86 W7 30.03S WESTFIELD CLOUDY 55 51 86 CALM 30.01F PROVINCETOWN PTSUNNY 66 55 68 SW12 30.02R NANTUCKET PTSUNNY 63 52 67 SE8 30.02S $$ ANZ330-335-338-340-345-350-353-355-161600- COASTAL MARINE OBSERVATIONS STATION/POSITION TIME SKY/WX TEMP WIND PRES VSBY WAVE AIR SEA DIR/SP/G HT/PER (UTC) (F) (DEG/KT/KT) (MB) (MI) (FT/S) NY HARB ENTRANCE NOT AVBL 4S FIRE IS NOT AVBL 23SW MTP 1500 N/A 2/ 7 HUDSON CANYON 1500 68 74 150/ 4/ 6 1015.5 2/ 7 EXECUTION ROCKS 1500 60 71 360/ 8/ 12 N/A WESTERN LI SOUND 1500 60 350/ 10/ 12 N/A 1 CENTRAL LI SOUND 1400 65 71 240/ 6/ 10 N/A 1 EASTERN LI SOUND 1400 67 68 230/ 4/ 6 N/A ROBBINS REEF 1400 1015.2 $$ >>>>>>>>>>>>>>>>>>>>>>>>>>>> KEY <<<<<<<<<<<<<<<<<<<<<<<<<<< > < > SKY/WX - SKY CONDITION/PRESENT WEATHER < > TMP - TEMPERATURE IN FAHRENHEIT < > DP - DEWPOINT IN FAHRENHEIT < > RH - RELATIVE HUMIDITY IN PERCENT < > WIND - DIRECTION AND SPEED IN MPH < > PRES - MEAN SEA LEVEL PRESSURE IN INCHES OF HG < > WCI - WIND CHILL INDEX < > VSB - VISIBILITY IN MILES < > HX - HEAT INDEX < > TC - TEMPERATURE IN CELSIUS < > VRB - VARIABLE WIND DIRECTION < > < >>>>>>>>>>>>>>>>>>>>>>>>>>>> KEY <<<<<<<<<<<<<<<<<<<<<<<<<<<

USA.gov is the U.S. government's official web portal to all federal, state and local government web resources and services.